map of LAM home
LAM - Airport
Location
City:  Los Alamos, New Mexico, United States
ICAO:KLAM
IATA:LAM
FAA LID:LAM

Details
Type:Airport (Airfield)
Use:Public/Civil
Latitude:35°52'47"N (35.879686)
Longitude:106°16'07"W (-106.268685)
Datum:WGS 1984
Elevation:7170 ft (2185 m)
Variation:8.37°E (WMM2015v2 magnetic declination)
-0.10° annual change
Runways:1
Longest:6000 × 120 ft (1829 × 36.5 m), paved

Time
Time Zone:UTC-7 (DST-6)
Local Time:

Weather
METAR:KLAM 041415Z AUTO 27004KT 10SM SCT060 SCT085 03/M02 A2997 RMK AO2 T00251016

Related Locations
Nearby:
Farthest:RRG: 11157 mi / 17955 km
Plaine Corail [Sir Gaėtan Duval Airport (Plaine Corail Airport)], Rodrigues Island, MU

Find:

   beyond  
but within

Other Information
Maps:
NOTAMs:
Links:
Sources:

  
  • flag of United States
  • flag of New Mexico
  

Sectional Chart

Flight Planning
at skyvector.com

Satellite Image

Google Maps Satellite view

 

Copyright © 2004-2019 Karl L. Swartz. All rights reserved.
The Great Circle Mapper name and logo are trademarks of the Great Circle Mapper.
All other trademarks mentioned herein belong to their respective owners.
Please see credits for attibutions and further copyright information.

  Follow gcmap on Facebook Follow gcmap on Twitter GCmap on LinkedIn

hCard Microformat

Geo Microformat